Regional Weather Roundup
Issued by NWS

Home | Current Version | Previous Version | Graphics & Text | Print | Product List | Glossary On
Versions: 1 2 3 4 5 6 7 8 9 10 11 12 13 14 15 16 17 18 19 20 21 22 23 24 25 26 27 28 29 30 31 32 33 34 35 36 37 38 39 40 41 42 43 44 45 46 47 48 49 50
000
ASUS43 KLOT 301600
RWRIL

ILLINOIS REGIONAL WEATHER ROUNDUP
NATIONAL WEATHER SERVICE CHICAGO/ROMEOVILLE IL
1100 AM CDT THU JUL 30 2015

NOTE: "FAIR" INDICATES FEW OR NO CLOUDS BELOW 12,000 FEET WITH NO
SIGNIFICANT WEATHER AND/OR OBSTRUCTIONS TO VISIBILITY.

* THESE STATIONS ARE NOT UNDER NWS QUALITY CONTROL. THEY ALSO MAY NOT
  REPORT WEATHER SUCH AS PRECIPITATION OR FOG.

ILZ001-002-007-009-015-016-024-301700-
NORTHWEST ILLINOIS

CITY           SKY/WX    TMP DP  RH WIND       PRES   REMARKS
MOLINE         SUNNY     81  62  52 W7        30.12R HX  82
STERLING*      SUNNY     82  64  54 W7        30.07S HX  84
$$

ILZ003-004-008-010-011-017-018-301700-
NORTH CENTRAL ILLINOIS

CITY           SKY/WX    TMP DP  RH WIND       PRES   REMARKS
ROCKFORD       SUNNY     83  58  42 W9        30.09S HX  83
$$

ILZ005-006-012>014-019>023-301700-
NORTHEAST ILLINOIS

CITY           SKY/WX    TMP DP  RH WIND       PRES   REMARKS
CHICAGO-OHARE  SUNNY     82  54  37 NW15      30.06S HX  81
CHICAGO-MIDWAY SUNNY     84  54  35 W15       30.07R HX  83
AURORA         SUNNY     81  62  52 W13       30.09S HX  82
WAUKEGAN       SUNNY     81  58  45 MISG      30.04S HX  81
DUPAGE AIRPORT SUNNY     82  55  39 NW14      30.08R HX  81
WHEELING       SUNNY     83  54  36 W12       30.07S HX  82
NORTHERLY ISL    N/A     81  53  37 NW13        N/A  HX  80
$$

LMZ740>746-301700-
SOUTHERN LAKE MICHIGAN

STATION/POSITION SKY/WX   TEMP    WIND        PRES    VSBY  WAVE
                          AIR SEA DIR/SP/G                  HT/PER
                          (F)     (DEG/KT/KT) (MB)    (MI)  (FT/S)
HARRISON CRIB              76     280/ 10/ 12   N/A
BURNHAM HARBOR             80     300/  5/ 11   N/A
CALUMET HARBOR             80     270/  5/ 10   N/A
BURNS HARBOR               73     270/  8/ 10 1018.3S
MICHIGAN CITY              72     240/ 12/ 14   N/A
MICHIGAN CITY 6N           73 73  280/ 12/ 16   N/A           3/ 4
ST. JOSEPH                 72 73  300/ 12/ 14   N/A           3/ 5
$$

ILZ025>027-034>036-040-047-049-050-058-095>099-301700-
WEST-CENTRAL ILLINOIS

CITY           SKY/WX    TMP DP  RH WIND       PRES   REMARKS
QUINCY         SUNNY     82  60  47 W12       30.18S HX  82
$$

ILZ028>032-037-038-041>044-048-051>054-059>061-301700-
CENTRAL ILLINOIS

CITY           SKY/WX    TMP DP  RH WIND       PRES   REMARKS
DECATUR        SUNNY     83  60  45 NW13      30.15R HX  83
PEORIA         SUNNY     82  64  54 NW6       30.13S HX  83
SPRINGFIELD    SUNNY     85  66  53 NW12      30.15S HX  87
TAYLORVILLE    NOT AVBL
$$

ILZ033-039-045-046-055>057-062-063-301700-
EAST-CENTRAL ILLINOIS

CITY           SKY/WX    TMP DP  RH WIND       PRES   REMARKS
CHAMPAIGN      SUNNY     81  65  58 NW8       30.14R HX  83
MATTOON        SUNNY     83  59  44 N12       30.14R HX  83
$$

ILZ079-100>102-301700-
SOUTHWEST ILLINOIS

CITY           SKY/WX    TMP DP  RH WIND       PRES   REMARKS
ALTON          SUNNY     82  61  47 NW6       30.18R HX  83
BELLEVILLE     SUNNY     84  66  53 VRB5      30.16R HX  86
CAHOKIA*       SUNNY     87  54  32 N6        30.17R HX  85
$$

ILZ064>066-069>071-074>076-080>082-084>086-088>090-092>094-301700-
SOUTH-CENTRAL ILLINOIS

CITY           SKY/WX    TMP DP  RH WIND       PRES   REMARKS
CARBONDALE     SUNNY     83  63  50 VRB7      30.16S HX  84
MT. VERNON     SUNNY     82  63  51 NE7       30.16S HX  83
$$

ILZ067-068-072-073-078-083-087-091-301700-
SOUTHEAST ILLINOIS

CITY           SKY/WX    TMP DP  RH WIND       PRES   REMARKS
LAWRENCEVILLE  SUNNY     82  62  50 N9        30.14R HX  83
$$

ABBREVIATIONS USED IN REMARKS
   TC - TEMPERATURE IN CELSIUS
  WCI - WIND CHILL INDEX
   HX - HEAT INDEX
  VSB - VISIBILITY
$$



USA.gov is the U.S. government's official web portal to all federal, state and local government web resources and services.